User: anonymous   Login
Location: Frydek-Mistek
(49.6830°N, 18.3330°E)
Time: 02:14:10
(UTC+02:00)
Language:

Courier 1B Rocket - Orbit

View from above orbital plane
View from above orbital plane
View from above satellite
View from above satellite

Ground track
Ground track

The orbit data is extracted from the following two-line orbital elements,

1    59U 60013B   17173.93360222 +.00000086 +00000-0 -33812-5 0  9997
2    59 028.2492 059.8512 0189289 133.3389 228.3099 13.52950892798809
Epoch (UTC): 22 June 2017 22:24:23
Eccentricity: 0.0189289
inclination: 28.2492°
perigee height: 920 km
apogee height: 1202 km
right ascension of ascending node: 59.8512°
argument of perigee: 133.3389°
revolutions per day: 13.52950892
mean anomaly at epoch: 228.3099°
orbit number at epoch: 79880

The dashed part of the orbit path shows where the satellite is in the earth's shadow,  

DLR